| time (UTC) | temp F | wind direction | speed MPH | gust MPH | rain 1hr in | rain 24hr in | rain mn in | humidity % | barometer mb |
| 20260906134719 | 69 | 36 | 6.0 | 12.0 | 0.00 | 0.00 | 0.00 | 1 | 1013.5 |
| 20260906134219 | 69 | 36 | 6.0 | 13.0 | 0.00 | 0.00 | 0.00 | 1 | 1013.5 |
| 20260906133719 | 69 | 90 | 7.0 | 13.0 | 0.00 | 0.00 | 0.00 | 1 | 1013.5 |
| 20260906133220 | 68 | 41 | 7.0 | 12.0 | 0.00 | 0.00 | 0.00 | 1 | 1013.5 |
| 20260906132713 | 67 | 90 | 6.0 | 12.0 | 0.00 | 0.00 | 0.00 | 1 | 1013.5 |
| 20260906132208 | 67 | 56 | 4.0 | 8.0 | 0.00 | 0.00 | 0.00 | 1 | 1013.5 |
| 20260906131707 | 66 | 63 | 5.0 | 10.0 | 0.00 | 0.00 | 0.00 | 1 | 1013.5 |
| 20260906131207 | 66 | 59 | 6.0 | 11.0 | 0.00 | 0.00 | 0.00 | 1 | 1013.6 |
| 20260906131150 | 65 | 61 | 5.0 | 11.0 | 0.00 | 0.00 | 0.00 | 1 | 1013.5 |
| 20260906130207 | 65 | 59 | 3.0 | 6.0 | 0.00 | 0.00 | 0.00 | 1 | 1013.5 |
| 20260906125707 | 65 | 52 | 3.0 | 8.0 | 0.00 | 0.00 | 0.00 | 1 | 1013.5 |
| 20260906125207 | 65 | 53 | 4.0 | 10.0 | 0.00 | 0.00 | 0.00 | 1 | 1013.5 |
| 20260906124707 | 64 | 53 | 4.0 | 10.0 | 0.00 | 0.00 | 0.00 | 1 | 1013.5 |
| 20260906124204 | 64 | 63 | 2.0 | 6.0 | 0.00 | 0.00 | 0.00 | 1 | 1013.5 |
| 20260906123922 | 64 | 62 | 2.0 | 6.0 | 0.00 | 0.00 | 0.00 | 1 | 1013.4 |
| 20260906123200 | 63 | 59 | 0.0 | 6.0 | 0.00 | 0.00 | 0.00 | 1 | 1013.4 |
| 20260906122702 | 63 | 61 | 0.0 | 0.0 | 0.00 | 0.00 | 0.00 | 1 | 1013.4 |
| 20260906122201 | 62 | 61 | 0.0 | 0.0 | 0.00 | 0.00 | 0.00 | 1 | 1013.4 |
| 20260906121701 | 62 | 61 | 0.0 | 0.0 | 0.00 | 0.00 | 0.00 | 1 | 1013.5 |
| 20260906121201 | 62 | 61 | 0.0 | 0.0 | 0.00 | 0.00 | 0.00 | 1 | 1013.5 |
| 20260906120701 | 62 | 61 | 0.0 | 0.0 | 0.00 | 0.00 | 0.00 | 1 | 1013.4 |
| 20260906120200 | 61 | 62 | 0.0 | 0.0 | 0.00 | 0.00 | 0.00 | 1 | 1013.5 |
| 20260906115701 | 61 | 67 | 0.0 | 0.0 | 0.00 | 0.00 | 0.00 | 1 | 1013.4 |
| 20260906115201 | 61 | 63 | 0.0 | 0.0 | 0.00 | 0.00 | 0.00 | 1 | 1013.4 |
| 20260906114657 | 61 | 65 | 0.0 | 0.0 | 0.00 | 0.00 | 0.00 | 1 | 1013.3 |
| 20260906114157 | 61 | 61 | 0.0 | 0.0 | 0.00 | 0.00 | 0.00 | 1 | 1013.2 |
| 20260906113657 | 60 | 61 | 0.0 | 0.0 | 0.00 | 0.00 | 0.00 | 1 | 1013.1 |
| 20260906113156 | 60 | 61 | 0.0 | 0.0 | 0.00 | 0.00 | 0.00 | 1 | 1013.1 |
| 20260906112658 | 60 | 61 | 0.0 | 0.0 | 0.00 | 0.00 | 0.00 | 1 | 1013.0 |
| 20260906112157 | 60 | 61 | 0.0 | 0.0 | 0.00 | 0.00 | 0.00 | 1 | 1013.0 |
| 20260906111657 | 60 | 61 | 0.0 | 0.0 | 0.00 | 0.00 | 0.00 | 1 | 1013.0 |
| 20260906111157 | 60 | 61 | 0.0 | 0.0 | 0.00 | 0.00 | 0.00 | 1 | 1013.0 |
| 20260906110656 | 60 | 61 | 0.0 | 0.0 | 0.00 | 0.00 | 0.00 | 1 | 1012.8 |
| 20260906110156 | 60 | 61 | 0.0 | 0.0 | 0.00 | 0.00 | 0.00 | 1 | 1012.7 |
| 20260906105657 | 60 | 61 | 0.0 | 0.0 | 0.00 | 0.00 | 0.00 | 1 | 1012.6 |
| 20260906105422 | 60 | 61 | 0.0 | 0.0 | 0.00 | 0.00 | 0.00 | 1 | 1012.6 |
| 20260906104656 | 60 | 61 | 0.0 | 0.0 | 0.00 | 0.00 | 0.00 | 1 | 1012.5 |
| 20260906104156 | 60 | 61 | 0.0 | 0.0 | 0.00 | 0.00 | 0.00 | 1 | 1012.5 |
| 20260906103657 | 60 | 61 | 0.0 | 0.0 | 0.00 | 0.00 | 0.00 | 1 | 1012.4 |
| 20260906103155 | 60 | 61 | 0.0 | 0.0 | 0.00 | 0.00 | 0.00 | 1 | 1012.2 |
| 20260906102655 | 60 | 61 | 0.0 | 0.0 | 0.00 | 0.00 | 0.00 | 1 | 1012.1 |
| 20260906102413 | 60 | 61 | 0.0 | 0.0 | 0.00 | 0.00 | 0.00 | 1 | 1012.1 |
| 20260906101651 | 60 | 61 | 0.0 | 0.0 | 0.00 | 0.00 | 0.00 | 1 | 1012.1 |
| 20260906101145 | 60 | 61 | 0.0 | 0.0 | 0.00 | 0.00 | 0.00 | 1 | 1012.0 |
| 20260906100645 | 60 | 61 | 0.0 | 0.0 | 0.00 | 0.00 | 0.00 | 1 | 1011.9 |
| 20260906100142 | 60 | 61 | 0.0 | 0.0 | 0.00 | 0.00 | 0.00 | 1 | 1011.8 |
| 20260906095644 | 60 | 61 | 0.0 | 0.0 | 0.00 | 0.00 | 0.00 | 1 | 1011.8 |
| 20260906095143 | 60 | 61 | 0.0 | 0.0 | 0.00 | 0.00 | 0.00 | 1 | 1011.7 |
| 20260906094641 | 61 | 61 | 0.0 | 0.0 | 0.00 | 0.00 | 0.00 | 1 | 1011.7 |
| 20260906094139 | 61 | 61 | 0.0 | 0.0 | 0.00 | 0.00 | 0.00 | 1 | 1011.7 |
| 20260906093639 | 61 | 61 | 0.0 | 0.0 | 0.00 | 0.00 | 0.00 | 1 | 1011.7 |
| 20260906093357 | 61 | 61 | 0.0 | 0.0 | 0.00 | 0.00 | 0.00 | 1 | 1011.7 |
| 20260906092638 | 61 | 61 | 0.0 | 0.0 | 0.00 | 0.00 | 0.00 | 1 | 1011.7 |
| 20260906092136 | 61 | 61 | 0.0 | 1.0 | 0.00 | 0.00 | 0.00 | 1 | 1011.5 |
| 20260906091634 | 61 | 61 | 0.0 | 2.0 | 0.00 | 0.00 | 0.00 | 1 | 1011.4 |
| 20260906091134 | 62 | 61 | 1.0 | 5.0 | 0.00 | 0.00 | 0.00 | 1 | 1011.4 |
| 20260906090632 | 62 | 61 | 2.0 | 5.0 | 0.00 | 0.00 | 0.00 | 1 | 1011.4 |
| 20260906090128 | 62 | 61 | 3.0 | 5.0 | 0.00 | 0.00 | 0.00 | 1 | 1011.4 |
| 20260906085629 | 62 | 61 | 3.0 | 6.0 | 0.00 | 0.00 | 0.00 | 1 | 1011.4 |
| 20260906085127 | 62 | 60 | 4.0 | 7.0 | 0.00 | 0.00 | 0.00 | 1 | 1011.4 |
| 20260906084847 | 62 | 59 | 5.0 | 7.0 | 0.00 | 0.00 | 0.00 | 1 | 1011.4 |
| 20260906084120 | 62 | 58 | 4.0 | 7.0 | 0.00 | 0.00 | 0.00 | 1 | 1011.4 |
| 20260906083614 | 62 | 62 | 3.0 | 7.0 | 0.00 | 0.00 | 0.00 | 1 | 1011.2 |
| 20260906083108 | 62 | 65 | 1.0 | 7.0 | 0.00 | 0.00 | 0.00 | 1 | 1011.3 |
| 20260906082601 | 62 | 68 | 0.0 | 0.0 | 0.00 | 0.00 | 0.00 | 1 | 1011.3 |
| 20260906082056 | 62 | 69 | 0.0 | 0.0 | 0.00 | 0.00 | 0.00 | 1 | 1011.1 |
| 20260906081552 | 62 | 69 | 0.0 | 1.0 | 0.00 | 0.00 | 0.00 | 1 | 1011.1 |
| 20260906081052 | 62 | 69 | 0.0 | 1.0 | 0.00 | 0.00 | 0.00 | 1 | 1011.0 |
| 20260906080552 | 62 | 69 | 0.0 | 1.0 | 0.00 | 0.00 | 0.00 | 1 | 1011.0 |
| 20260906080052 | 62 | 69 | 0.0 | 0.0 | 0.00 | 0.00 | 0.00 | 1 | 1011.1 |
| 20260906075554 | 62 | 69 | 0.0 | 0.0 | 0.00 | 0.00 | 0.00 | 1 | 1011.2 |
| 20260906075052 | 62 | 69 | 0.0 | 0.0 | 0.00 | 0.00 | 0.00 | 1 | 1011.2 |
| 20260906074552 | 63 | 69 | 0.0 | 0.0 | 0.00 | 0.00 | 0.00 | 1 | 1011.2 |
| 20260906074309 | 63 | 69 | 0.0 | 0.0 | 0.00 | 0.00 | 0.00 | 1 | 1011.3 |
| 20260906073550 | 63 | 69 | 0.0 | 0.0 | 0.00 | 0.00 | 0.00 | 1 | 1011.2 |
| 20260906073050 | 63 | 69 | 0.0 | 1.0 | 0.00 | 0.00 | 0.00 | 1 | 1011.1 |
| 20260906073033 | 63 | 69 | 0.0 | 1.0 | 0.00 | 0.00 | 0.00 | 1 | 1011.1 |
| 20260906072048 | 64 | 69 | 1.0 | 2.0 | 0.00 | 0.00 | 0.00 | 1 | 1011.0 |
| 20260906071548 | 64 | 69 | 1.0 | 2.0 | 0.00 | 0.00 | 0.00 | 1 | 1011.0 |
| 20260906071046 | 64 | 69 | 0.0 | 2.0 | 0.00 | 0.00 | 0.00 | 1 | 1010.9 |
| 20260906070546 | 64 | 69 | 0.0 | 1.0 | 0.00 | 0.00 | 0.00 | 1 | 1011.0 |
| 20260906070046 | 64 | 69 | 0.0 | 2.0 | 0.00 | 0.00 | 0.00 | 1 | 1010.9 |
| 20260906065805 | 64 | 69 | 0.0 | 2.0 | 0.00 | 0.00 | 0.00 | 1 | 1010.9 |
| 20260906065042 | 65 | 69 | 0.0 | 2.0 | 0.00 | 0.00 | 0.00 | 1 | 1011.0 |
| 20260906064541 | 65 | 69 | 0.0 | 0.0 | 0.00 | 0.00 | 0.00 | 1 | 1011.0 |
| 20260906064036 | 65 | 69 | 0.0 | 0.0 | 0.00 | 0.00 | 0.00 | 1 | 1011.0 |
| 20260906063530 | 65 | 69 | 0.0 | 2.0 | 0.00 | 0.00 | 0.00 | 1 | 1011.0 |
| 20260906063023 | 65 | 69 | 2.0 | 5.0 | 0.00 | 0.00 | 0.00 | 1 | 1011.0 |
| 20260906062517 | 65 | 69 | 2.0 | 6.0 | 0.00 | 0.00 | 0.00 | 1 | 1011.0 |
| 20260906062236 | 65 | 69 | 1.0 | 6.0 | 0.00 | 0.00 | 0.00 | 1 | 1011.0 |
| 20260906061506 | 65 | 72 | 0.0 | 0.0 | 0.00 | 0.00 | 0.00 | 1 | 1010.9 |
| 20260906061001 | 65 | 72 | 0.0 | 0.0 | 0.00 | 0.00 | 0.00 | 1 | 1010.9 |
| 20260906060454 | 65 | 72 | 0.0 | 0.0 | 0.00 | 0.00 | 0.00 | 1 | 1011.0 |
| 20260906055948 | 65 | 72 | 0.0 | 0.0 | 0.00 | 0.00 | 0.00 | 1 | 1011.0 |
| 20260906055443 | 65 | 72 | 0.0 | 0.0 | 0.00 | 0.00 | 0.00 | 1 | 1011.1 |
| 20260906054936 | 65 | 73 | 0.0 | 4.0 | 0.00 | 0.00 | 0.00 | 1 | 1011.1 |
| 20260906054430 | 65 | 72 | 2.0 | 5.0 | 0.00 | 0.00 | 0.00 | 1 | 1011.2 |
| 20260906053924 | 66 | 72 | 2.0 | 5.0 | 0.00 | 0.00 | 0.00 | 1 | 1011.3 |
| 20260906053418 | 66 | 71 | 2.0 | 6.0 | 0.00 | 0.00 | 0.00 | 1 | 1011.2 |
| 20260906052912 | 66 | 71 | 2.0 | 6.0 | 0.00 | 0.00 | 0.00 | 1 | 1011.2 |
| 20260906052405 | 66 | 70 | 3.0 | 5.0 | 0.00 | 0.00 | 0.00 | 1 | 1011.1 |
| 20260906051900 | 66 | 69 | 3.0 | 6.0 | 0.00 | 0.00 | 0.00 | 1 | 1011.1 |
| 20260906051354 | 66 | 69 | 3.0 | 7.0 | 0.00 | 0.00 | 0.00 | 1 | 1011.2 |
| 20260906050848 | 66 | 69 | 3.0 | 7.0 | 0.00 | 0.00 | 0.00 | 1 | 1011.2 |
| 20260906050342 | 66 | 63 | 3.0 | 6.0 | 0.00 | 0.00 | 0.00 | 1 | 1011.1 |
| 20260906045836 | 66 | 63 | 3.0 | 6.0 | 0.00 | 0.00 | 0.00 | 1 | 1011.1 |
| 20260906045330 | 66 | 61 | 4.0 | 6.0 | 0.00 | 0.00 | 0.00 | 1 | 1011.2 |
| 20260906044825 | 66 | 59 | 5.0 | 9.0 | 0.00 | 0.00 | 0.00 | 1 | 1011.2 |
| 20260906044318 | 66 | 58 | 5.0 | 9.0 | 0.00 | 0.00 | 0.00 | 1 | 1011.1 |
| 20260906043812 | 66 | 60 | 5.0 | 9.0 | 0.00 | 0.00 | 0.00 | 1 | 1011.1 |
| 20260906043306 | 66 | 64 | 5.0 | 8.0 | 0.00 | 0.00 | 0.00 | 1 | 1011.1 |
| 20260906042800 | 66 | 57 | 5.0 | 8.0 | 0.00 | 0.00 | 0.00 | 1 | 1011.1 |
| 20260906042254 | 66 | 57 | 4.0 | 6.0 | 0.00 | 0.00 | 0.00 | 1 | 1011.1 |
| 20260906041749 | 66 | 57 | 3.0 | 7.0 | 0.00 | 0.00 | 0.00 | 1 | 1011.2 |
| 20260906041242 | 66 | 57 | 3.0 | 8.0 | 0.00 | 0.00 | 0.00 | 1 | 1011.1 |
| 20260906040736 | 65 | 51 | 4.0 | 8.0 | 0.00 | 0.00 | 0.00 | 1 | 1011.0 |
| 20260906040230 | 65 | 63 | 2.0 | 10.0 | 0.00 | 0.00 | 0.00 | 1 | 1010.9 |
| 20260906035724 | 64 | 58 | 1.0 | 10.0 | 0.00 | 0.00 | 0.00 | 1 | 1010.9 |
| 20260906035219 | 64 | 60 | 0.0 | 5.0 | 0.00 | 0.00 | 0.00 | 1 | 1010.9 |
| 20260906034712 | 63 | 49 | 0.0 | 2.0 | 0.00 | 0.00 | 0.00 | 1 | 1011.0 |
| 20260906034206 | 63 | 49 | 0.0 | 2.0 | 0.00 | 0.00 | 0.00 | 1 | 1011.0 |
| 20260906033700 | 62 | 49 | 0.0 | 1.0 | 0.00 | 0.00 | 0.00 | 1 | 1011.1 |
| 20260906033156 | 62 | 48 | 0.0 | 1.0 | 0.00 | 0.00 | 0.00 | 1 | 1011.1 |
| 20260906032648 | 62 | 48 | 0.0 | 1.0 | 0.00 | 0.00 | 0.00 | 1 | 1011.0 |
| 20260906032142 | 62 | 48 | 0.0 | 0.0 | 0.00 | 0.00 | 0.00 | 1 | 1011.0 |
| 20260906031636 | 62 | 48 | 0.0 | 0.0 | 0.00 | 0.00 | 0.00 | 1 | 1010.9 |
| 20260906031130 | 62 | 48 | 0.0 | 0.0 | 0.00 | 0.00 | 0.00 | 1 | 1010.9 |
| 20260906030624 | 62 | 48 | 0.0 | 0.0 | 0.00 | 0.00 | 0.00 | 1 | 1010.8 |
| 20260906030117 | 62 | 48 | 0.0 | 0.0 | 0.00 | 0.00 | 0.00 | 1 | 1010.8 |
| 20260906025612 | 62 | 48 | 0.0 | 0.0 | 0.00 | 0.00 | 0.00 | 1 | 1010.8 |
| 20260906025107 | 62 | 48 | 0.0 | 0.0 | 0.00 | 0.00 | 0.00 | 1 | 1010.8 |
| 20260906024600 | 62 | 48 | 0.0 | 0.0 | 0.00 | 0.00 | 0.00 | 1 | 1010.8 |
| 20260906024054 | 63 | 48 | 0.0 | 0.0 | 0.00 | 0.00 | 0.00 | 1 | 1010.8 |
| 20260906023548 | 63 | 48 | 0.0 | 0.0 | 0.00 | 0.00 | 0.00 | 1 | 1010.8 |
| 20260906023042 | 63 | 48 | 0.0 | 0.0 | 0.00 | 0.00 | 0.00 | 1 | 1010.7 |
| 20260906022536 | 63 | 48 | 0.0 | 0.0 | 0.00 | 0.00 | 0.00 | 1 | 1010.8 |
| 20260906022031 | 63 | 48 | 0.0 | 0.0 | 0.00 | 0.00 | 0.00 | 1 | 1010.9 |
| 20260906021524 | 63 | 48 | 0.0 | 0.0 | 0.00 | 0.00 | 0.00 | 1 | 1010.9 |
| 20260906021018 | 64 | 48 | 0.0 | 0.0 | 0.00 | 0.00 | 0.00 | 1 | 1010.8 |
| 20260906020512 | 64 | 48 | 0.0 | 0.0 | 0.00 | 0.00 | 0.00 | 1 | 1010.7 |
| 20260906020006 | 64 | 48 | 0.0 | 0.0 | 0.00 | 0.00 | 0.00 | 1 | 1010.7 |
| 20260906015500 | 64 | 48 | 0.0 | 0.0 | 0.00 | 0.00 | 0.00 | 1 | 1010.7 |
| 20260906015216 | 65 | 48 | 0.0 | 0.0 | 0.00 | 0.00 | 0.00 | 1 | 1010.6 |
| 20260906014448 | 65 | 48 | 0.0 | 0.0 | 0.00 | 0.00 | 0.00 | 1 | 1010.7 |
| 20260906014205 | 65 | 48 | 0.0 | 0.0 | 0.00 | 0.00 | 0.00 | 1 | 1010.5 |
| 20260906013435 | 65 | 48 | 0.0 | 0.0 | 0.00 | 0.00 | 0.00 | 1 | 1010.5 |
| 20260906012930 | 65 | 48 | 0.0 | 0.0 | 0.00 | 0.00 | 0.00 | 1 | 1010.5 |
| 20260906012424 | 66 | 48 | 0.0 | 0.0 | 0.00 | 0.00 | 0.00 | 1 | 1010.5 |
| 20260906012402 | 66 | 48 | 0.0 | 0.0 | 0.00 | 0.00 | 0.00 | 1 | 1010.5 |
| 20260906011420 | 66 | 48 | 0.0 | 0.0 | 0.00 | 0.00 | 0.00 | 1 | 1010.5 |
| 20260906011143 | 66 | 48 | 0.0 | 0.0 | 0.00 | 0.00 | 0.00 | 1 | 1010.5 |
| 20260906010420 | 67 | 48 | 0.0 | 0.0 | 0.00 | 0.00 | 0.00 | 1 | 1010.4 |
| 20260906005920 | 67 | 48 | 0.0 | 0.0 | 0.00 | 0.00 | 0.00 | 1 | 1010.3 |
| 20260906005418 | 67 | 48 | 0.0 | 0.0 | 0.00 | 0.00 | 0.00 | 1 | 1010.4 |
| 20260906004918 | 67 | 48 | 0.0 | 0.0 | 0.00 | 0.00 | 0.00 | 1 | 1010.3 |
| 20260906004646 | 67 | 48 | 0.0 | 0.0 | 0.00 | 0.00 | 0.00 | 1 | 1010.3 |
| 20260906003916 | 67 | 48 | 0.0 | 0.0 | 0.00 | 0.00 | 0.00 | 1 | 1010.2 |
| 20260906003416 | 68 | 48 | 0.0 | 0.0 | 0.00 | 0.00 | 0.00 | 1 | 1010.1 |
| 20260906002914 | 68 | 48 | 0.0 | 1.0 | 0.00 | 0.00 | 0.00 | 1 | 1010.0 |
| 20260906002413 | 68 | 48 | 0.0 | 1.0 | 0.00 | 0.00 | 0.00 | 1 | 1009.9 |
| 20260906002134 | 68 | 48 | 0.0 | 0.0 | 0.00 | 0.00 | 0.00 | 1 | 1009.9 |
| 20260906001411 | 69 | 48 | 0.0 | 0.0 | 0.00 | 0.00 | 0.00 | 1 | 1009.9 |
| 20260906001129 | 69 | 48 | 0.0 | 0.0 | 0.00 | 0.00 | 0.00 | 1 | 1009.9 |
| 20260906000411 | 69 | 48 | 0.0 | 0.0 | 0.00 | 0.00 | 0.00 | 1 | 1009.9 |
| 20260905235906 | 69 | 48 | 0.0 | 0.0 | 0.00 | 0.00 | 0.00 | 1 | 1009.9 |
| 20260905235406 | 69 | 48 | 0.0 | 0.0 | 0.00 | 0.00 | 0.00 | 1 | 1009.9 |
| 20260905234906 | 69 | 48 | 0.0 | 0.0 | 0.00 | 0.00 | 0.00 | 1 | 1009.8 |
| 20260905234406 | 69 | 48 | 0.0 | 0.0 | 0.00 | 0.00 | 0.00 | 1 | 1009.8 |
| 20260905234131 | 69 | 48 | 0.0 | 1.0 | 0.00 | 0.00 | 0.00 | 1 | 1009.7 |
| 20260905233406 | 69 | 48 | 0.0 | 1.0 | 0.00 | 0.00 | 0.00 | 1 | 1009.6 |
| 20260905232906 | 69 | 48 | 0.0 | 0.0 | 0.00 | 0.00 | 0.00 | 1 | 1009.7 |
| 20260905232404 | 69 | 48 | 0.0 | 0.0 | 0.00 | 0.00 | 0.00 | 1 | 1009.6 |
| 20260905231904 | 70 | 48 | 0.0 | 0.0 | 0.00 | 0.00 | 0.00 | 1 | 1009.5 |
| 20260905231405 | 70 | 48 | 0.0 | 0.0 | 0.00 | 0.00 | 0.00 | 1 | 1009.5 |
| 20260905230903 | 71 | 48 | 0.0 | 2.0 | 0.00 | 0.00 | 0.00 | 1 | 1009.5 |
| 20260905230855 | 71 | 48 | 2.0 | 7.0 | 0.00 | 0.00 | 0.00 | 1 | 1009.4 |
| 20260905225902 | 71 | 48 | 3.0 | 8.0 | 0.00 | 0.00 | 0.00 | 1 | 1009.4 |
| 20260905225401 | 71 | 56 | 3.0 | 8.0 | 0.00 | 0.00 | 0.00 | 2 | 1009.3 |
| 20260905224903 | 72 | 53 | 4.0 | 11.0 | 0.00 | 0.00 | 0.00 | 3 | 1009.3 |
| 20260905224402 | 72 | 55 | 3.0 | 11.0 | 0.00 | 0.00 | 0.00 | 8 | 1009.3 |
| 20260905223902 | 73 | 53 | 4.0 | 12.0 | 0.00 | 0.00 | 0.00 | 8 | 1009.3 |
| 20260905223402 | 74 | 63 | 5.0 | 12.0 | 0.00 | 0.00 | 0.00 | 10 | 1009.3 |
| 20260905222902 | 74 | 68 | 5.0 | 9.0 | 0.00 | 0.00 | 0.00 | 8 | 1009.3 |
| 20260905222402 | 74 | 60 | 6.0 | 11.0 | 0.00 | 0.00 | 0.00 | 7 | 1009.3 |
| 20260905221902 | 74 | 74 | 4.0 | 11.0 | 0.00 | 0.00 | 0.00 | 5 | 1009.2 |
| 20260905221358 | 75 | 340 | 1.0 | 9.0 | 0.00 | 0.00 | 0.00 | 1 | 1009.1 |
| 20260905220857 | 75 | 58 | 0.0 | 4.0 | 0.00 | 0.00 | 0.00 | 1 | 1009.1 |
| 20260905220358 | 74 | 58 | 0.0 | 2.0 | 0.00 | 0.00 | 0.00 | 1 | 1009.1 |
| 20260905215858 | 73 | 58 | 0.0 | 2.0 | 0.00 | 0.00 | 0.00 | 1 | 1008.9 |
| 20260905215617 | 73 | 58 | 1.0 | 4.0 | 0.00 | 0.00 | 0.00 | 1 | 1009.1 |
| 20260905215119 | 73 | 58 | 3.0 | 9.0 | 0.00 | 0.00 | 0.00 | 1 | 1009.1 |
| 20260905214624 | 73 | 56 | 4.0 | 9.0 | 0.00 | 0.00 | 0.00 | 1 | 1009.0 |
| 20260905213858 | 73 | 66 | 3.0 | 8.0 | 0.00 | 0.00 | 0.00 | 1 | 1008.9 |
| 20260905213358 | 74 | 55 | 3.0 | 8.0 | 0.00 | 0.00 | 0.00 | 1 | 1008.9 |
| 20260905213122 | 74 | 68 | 3.0 | 8.0 | 0.00 | 0.00 | 0.00 | 1 | 1008.8 |
| 20260905212358 | 74 | 99 | 3.0 | 9.0 | 0.00 | 0.00 | 0.00 | 1 | 1008.8 |
| 20260905211858 | 74 | 61 | 2.0 | 9.0 | 0.00 | 0.00 | 0.00 | 1 | 1008.8 |
| 20260905211358 | 74 | 97 | 0.0 | 4.0 | 0.00 | 0.00 | 0.00 | 1 | 1008.8 |
| 20260905210858 | 74 | 97 | 1.0 | 7.0 | 0.00 | 0.00 | 0.00 | 1 | 1008.6 |
| 20260905210358 | 74 | 92 | 1.0 | 7.0 | 0.00 | 0.00 | 0.00 | 1 | 1008.6 |
| 20260905205857 | 75 | 52 | 3.0 | 7.0 | 0.00 | 0.00 | 0.00 | 2 | 1008.6 |
| 20260905205358 | 75 | 52 | 3.0 | 7.0 | 0.00 | 0.00 | 0.00 | 6 | 1008.6 |
| 20260905204859 | 75 | 63 | 1.0 | 5.0 | 0.00 | 0.00 | 0.00 | 1 | 1008.6 |
| 20260905204357 | 75 | 63 | 1.0 | 6.0 | 0.00 | 0.00 | 0.00 | 3 | 1008.5 |
| 20260905204114 | 74 | 58 | 1.0 | 8.0 | 0.00 | 0.00 | 0.00 | 3 | 1008.4 |
| 20260905203357 | 74 | 57 | 3.0 | 9.0 | 0.00 | 0.00 | 0.00 | 5 | 1008.4 |
| 20260905202857 | 74 | 52 | 5.0 | 9.0 | 0.00 | 0.00 | 0.00 | 8 | 1008.4 |
| 20260905202357 | 75 | 45 | 5.0 | 9.0 | 0.00 | 0.00 | 0.00 | 13 | 1008.4 |
| 20260905201858 | 75 | 53 | 6.0 | 11.0 | 0.00 | 0.00 | 0.00 | 14 | 1008.4 |
| 20260905201358 | 76 | 51 | 7.0 | 12.0 | 0.00 | 0.00 | 0.00 | 22 | 1008.4 |
| 20260905200857 | 77 | 44 | 6.0 | 12.0 | 0.00 | 0.00 | 0.00 | 20 | 1008.3 |
| 20260905200357 | 78 | 49 | 6.0 | 11.0 | 0.00 | 0.00 | 0.00 | 22 | 1008.3 |
| 20260905195857 | 79 | 70 | 3.0 | 11.0 | 0.00 | 0.00 | 0.00 | 25 | 1008.3 |
| 20260905195358 | 79 | 101 | 1.0 | 5.0 | 0.00 | 0.00 | 0.00 | 15 | 1008.3 |
| 20260905194854 | 78 | 307 | 1.0 | 5.0 | 0.00 | 0.00 | 0.00 | 16 | 1008.3 |
| 20260905194353 | 77 | 306 | 1.0 | 5.0 | 0.00 | 0.00 | 0.00 | 16 | 1008.3 |
| 20260905193854 | 76 | 307 | 1.0 | 5.0 | 0.00 | 0.00 | 0.00 | 9 | 1008.3 |
| 20260905193354 | 76 | 59 | 2.0 | 9.0 | 0.00 | 0.00 | 0.00 | 17 | 1008.3 |
| 20260905192852 | 76 | 46 | 4.0 | 9.0 | 0.00 | 0.00 | 0.00 | 22 | 1008.3 |
| 20260905192347 | 76 | 49 | 5.0 | 9.0 | 0.00 | 0.00 | 0.00 | 23 | 1008.3 |
| 20260905191847 | 77 | 59 | 7.0 | 15.0 | 0.00 | 0.00 | 0.00 | 19 | 1008.4 |
| 20260905191602 | 78 | 78 | 6.0 | 15.0 | 0.00 | 0.00 | 0.00 | 22 | 1008.4 |
| 20260905190843 | 79 | 54 | 3.0 | 15.0 | 0.00 | 0.00 | 0.00 | 21 | 1008.3 |
| 20260905190344 | 78 | 43 | 3.0 | 7.0 | 0.00 | 0.00 | 0.00 | 21 | 1008.3 |
| 20260905185842 | 78 | 55 | 4.0 | 8.0 | 0.00 | 0.00 | 0.00 | 16 | 1008.3 |
| 20260905185601 | 77 | 62 | 6.0 | 9.0 | 0.00 | 0.00 | 0.00 | 10 | 1008.4 |
| 20260905184842 | 76 | 80 | 7.0 | 10.0 | 0.00 | 0.00 | 0.00 | 14 | 1008.4 |
| 20260905184342 | 76 | 42 | 4.0 | 10.0 | 0.00 | 0.00 | 0.00 | 17 | 1008.5 |
| 20260905183841 | 77 | 65 | 2.0 | 9.0 | 0.00 | 0.00 | 0.00 | 14 | 1008.4 |
| 20260905183341 | 78 | 105 | 2.0 | 6.0 | 0.00 | 0.00 | 0.00 | 23 | 1008.5 |
| 20260905183101 | 78 | 49 | 4.0 | 11.0 | 0.00 | 0.00 | 0.00 | 20 | 1008.5 |
| 20260905182342 | 78 | 46 | 5.0 | 11.0 | 0.00 | 0.00 | 0.00 | 12 | 1008.5 |
| 20260905181842 | 78 | 67 | 3.0 | 7.0 | 0.00 | 0.00 | 0.00 | 8 | 1008.5 |
| 20260905181339 | 77 | 70 | 2.0 | 6.0 | 0.00 | 0.00 | 0.00 | 1 | 1008.6 |
| 20260905180840 | 76 | 63 | 1.0 | 6.0 | 0.00 | 0.00 | 0.00 | 1 | 1008.6 |
| 20260905180339 | 75 | 65 | 2.0 | 9.0 | 0.00 | 0.00 | 0.00 | 1 | 1008.6 |
| 20260905180058 | 75 | 65 | 2.0 | 9.0 | 0.00 | 0.00 | 0.00 | 12 | 1008.6 |
| 20260905175340 | 76 | 41 | 0.0 | 0.0 | 0.00 | 0.00 | 0.00 | 9 | 1008.7 |
| 20260905174840 | 76 | 42 | 2.0 | 9.0 | 0.00 | 0.00 | 0.00 | 13 | 1008.7 |
| 20260905174339 | 77 | 42 | 3.0 | 12.0 | 0.00 | 0.00 | 0.00 | 18 | 1008.7 |
| 20260905173839 | 78 | 48 | 2.0 | 12.0 | 0.00 | 0.00 | 0.00 | 6 | 1008.7 |
| 20260905173339 | 77 | 58 | 3.0 | 10.0 | 0.00 | 0.00 | 0.00 | 11 | 1008.7 |
| 20260905172840 | 76 | 63 | 6.0 | 11.0 | 0.00 | 0.00 | 0.00 | 1 | 1008.7 |
| 20260905172559 | 76 | 69 | 5.0 | 11.0 | 0.00 | 0.00 | 0.00 | 10 | 1008.7 |
| 20260905171839 | 75 | 79 | 4.0 | 9.0 | 0.00 | 0.00 | 0.00 | 5 | 1008.8 |
| 20260905171555 | 75 | 81 | 5.0 | 11.0 | 0.00 | 0.00 | 0.00 | 11 | 1008.8 |
| 20260905170824 | 75 | 74 | 5.0 | 11.0 | 0.00 | 0.00 | 0.00 | 6 | 1008.9 |
| 20260905170319 | 75 | 57 | 6.0 | 11.0 | 0.00 | 0.00 | 0.00 | 1 | 1008.8 |
| 20260905165813 | 75 | 48 | 6.0 | 13.0 | 0.00 | 0.00 | 0.00 | 7 | 1008.9 |
| 20260905165307 | 76 | 69 | 6.0 | 14.0 | 0.00 | 0.00 | 0.00 | 1 | 1008.9 |
| 20260905165020 | 76 | 64 | 7.0 | 14.0 | 0.00 | 0.00 | 0.00 | 1 | 1008.9 |
| 20260905164514 | 75 | 53 | 6.0 | 11.0 | 0.00 | 0.00 | 0.00 | 1 | 1008.9 |
| 20260905163749 | 76 | 50 | 4.0 | 10.0 | 0.00 | 0.00 | 0.00 | 13 | 1008.9 |
| 20260905163243 | 76 | 101 | 3.0 | 9.0 | 0.00 | 0.00 | 0.00 | 1 | 1008.9 |
| 20260905162737 | 76 | 51 | 2.0 | 9.0 | 0.00 | 0.00 | 0.00 | 1 | 1008.9 |
| 20260905162231 | 76 | 92 | 3.0 | 9.0 | 0.00 | 0.00 | 0.00 | 1 | 1008.8 |
| 20260905161947 | 75 | 71 | 6.0 | 12.0 | 0.00 | 0.00 | 0.00 | 1 | 1008.8 |
| 20260905161653 | 76 | 40 | 6.0 | 12.0 | 0.00 | 0.00 | 0.00 | 4 | 1008.9 |
| 20260905160713 | 76 | 76 | 5.0 | 11.0 | 0.00 | 0.00 | 0.00 | 1 | 1009.0 |
| 20260905160207 | 76 | 57 | 6.0 | 11.0 | 0.00 | 0.00 | 0.00 | 1 | 1008.9 |
| 20260905155702 | 76 | 83 | 5.0 | 10.0 | 0.00 | 0.00 | 0.00 | 1 | 1008.9 |
| 20260905155417 | 76 | 65 | 4.0 | 12.0 | 0.00 | 0.00 | 0.00 | 1 | 1008.9 |
| 20260905154650 | 76 | 59 | 6.0 | 12.0 | 0.00 | 0.00 | 0.00 | 1 | 1008.9 |
| 20260905154143 | 75 | 77 | 6.0 | 12.0 | 0.00 | 0.00 | 0.00 | 1 | 1008.9 |
| 20260905153636 | 75 | 47 | 7.0 | 12.0 | 0.00 | 0.00 | 0.00 | 1 | 1008.9 |
| 20260905153613 | 75 | 64 | 6.0 | 12.0 | 0.00 | 0.00 | 0.00 | 1 | 1009.1 |
| 20260905152624 | 75 | 59 | 6.0 | 12.0 | 0.00 | 0.00 | 0.00 | 1 | 1009.1 |
| 20260905152119 | 75 | 77 | 6.0 | 12.0 | 0.00 | 0.00 | 0.00 | 1 | 1009.1 |
| 20260905151613 | 75 | 58 | 5.0 | 12.0 | 0.00 | 0.00 | 0.00 | 1 | 1009.1 |
| 20260905151107 | 74 | 53 | 3.0 | 10.0 | 0.00 | 0.00 | 0.00 | 1 | 1009.1 |
| 20260905150600 | 74 | 44 | 3.0 | 9.0 | 0.00 | 0.00 | 0.00 | 1 | 1009.1 |
| 20260905150055 | 75 | 284 | 5.0 | 11.0 | 0.00 | 0.00 | 0.00 | 1 | 1009.1 |
| 20260905145809 | 74 | 73 | 6.0 | 13.0 | 0.00 | 0.00 | 0.00 | 1 | 1009.1 |
| 20260905145307 | 74 | 53 | 7.0 | 13.0 | 0.00 | 0.00 | 0.00 | 1 | 1009.3 |
| 20260905144538 | 74 | 79 | 7.0 | 12.0 | 0.00 | 0.00 | 0.00 | 1 | 1009.2 |
| 20260905144031 | 74 | 62 | 5.0 | 13.0 | 0.00 | 0.00 | 0.00 | 1 | 1009.1 |
| 20260905143525 | 74 | 49 | 5.0 | 13.0 | 0.00 | 0.00 | 0.00 | 1 | 1009.1 |
| 20260905143018 | 74 | 56 | 3.0 | 9.0 | 0.00 | 0.00 | 0.00 | 1 | 1009.1 |
| 20260905142513 | 73 | 103 | 3.0 | 9.0 | 0.00 | 0.00 | 0.00 | 1 | 1009.1 |
| 20260905142007 | 73 | 77 | 3.0 | 9.0 | 0.00 | 0.00 | 0.00 | 1 | 1009.0 |
| 20260905141501 | 73 | 64 | 2.0 | 9.0 | 0.00 | 0.00 | 0.00 | 1 | 1009.0 |
| 20260905140955 | 73 | 53 | 1.0 | 7.0 | 0.00 | 0.00 | 0.00 | 1 | 1009.0 |
| 20260905140449 | 73 | 57 | 1.0 | 6.0 | 0.00 | 0.00 | 0.00 | 1 | 1009.0 |
| 20260905135943 | 73 | 66 | 1.0 | 6.0 | 0.00 | 0.00 | 0.00 | 1 | 1009.0 |
| 20260905135437 | 72 | 68 | 2.0 | 8.0 | 0.00 | 0.00 | 0.00 | 1 | 1008.9 |